Lapse_Rate
2.6 3.4 4.4 5.6 6.0 6.7 6.7 5.9 5.3 5.4 5.5 5.7 6.0 6.2 6.4 6.2 5.6 5.1 5.0 5.2 5.1 4.9 5.1 5.7 6.1 6.4 6.4 6.2 6.7 7.0 6.0 5.0 4.7 4.9 5.1 5.4 5.3 5.6 6.9 7.7 8.1 8.2 8.3
3.8 4.9 5.5 5.7 6.6 7.3 7.0 5.9 5.3 5.5 6.1 6.0 6.4 6.6 6.6 5.9 5.6 5.4 5.4 5.3 5.4 5.5 5.9 6.7 7.9 8.4 7.0 6.4 5.2 5.0 4.6 4.6 4.6 5.0 4.7 5.1 5.4 6.3 6.8 6.2 8.0 8.9 8.6
5.2 5.4 5.9 6.3 6.7 6.0 4.9 5.1 5.5 5.8 5.9 6.2 6.8 6.7 6.7 5.7 5.8 5.6 5.6 5.7 6.5 6.3 6.4 6.5 6.8 6.8 5.9 4.8 5.0 4.5 4.4 5.9 4.5 4.9 5.7 5.6 6.5 6.2 7.1 6.8 6.8 7.4 8.2
5.9 6.2 6.6 6.0 6.4 5.2 5.3 5.7 5.8 6.3 6.7 6.7 6.7 6.8 6.2 5.3 5.8 5.9 6.7 6.5 5.9 6.6 6.5 6.8 7.2 6.7 6.0 5.6 5.5 4.8 5.5 4.6 5.1 5.3 6.2 6.4 7.1 7.3 6.6 6.8 7.2 6.6 6.7
6.7 6.4 5.0 5.0 4.8 5.1 5.1 5.4 6.2 6.3 6.7 6.6 6.7 6.1 5.8 6.0 6.5 5.8 6.8 6.8 6.5 6.8 6.7 7.2 7.5 7.3 8.1 5.6 5.7 4.7 4.9 5.1 5.2 5.8 6.5 7.2 7.4 7.1 7.0 7.1 7.1 6.7 6.3
5.3 5.6 5.7 5.6 5.4 5.4 5.7 5.5 5.6 6.2 6.7 6.5 5.9 5.7 5.8 6.4 5.3 5.3 5.6 5.7 5.9 5.8 6.4 6.0 6.5 7.4 7.1 6.8 6.6 6.8 6.3 5.4 5.2 5.0 6.6 7.4 7.1 7.1 7.1 7.3 6.5 6.5 6.6
5.9 6.0 6.0 6.5 6.1 6.3 6.3 5.8 6.7 6.7 6.0 5.5 6.2 6.3 5.7 5.6 4.9 4.7 4.5 4.5 5.7 6.0 5.8 5.5 6.4 7.0 5.5 5.2 5.7 5.8 5.4 6.4 6.3 5.7 6.9 7.5 7.3 7.2 7.0 7.2 7.1 6.8 6.7
6.2 6.9 7.5 7.8 8.0 6.4 6.8 6.9 6.9 6.3 5.8 5.3 5.5 5.9 5.7 5.5 5.1 4.9 5.3 4.0 4.5 5.3 5.4 5.1 5.4 5.1 4.8 5.0 5.0 4.5 4.8 4.7 5.4 6.7 7.7 7.0 6.8 7.5 7.4 7.8 7.3 6.8 6.4
7.1 7.6 8.0 7.8 6.6 6.9 6.5 6.7 6.6 6.2 5.8 5.7 5.4 5.4 4.9 3.5 4.6 4.8 4.9 3.8 4.7 5.1 5.4 5.3 5.8 4.7 6.0 6.4 4.8 4.1 4.4 4.3 5.9 7.1 7.3 7.7 8.2 8.4 8.8 8.0 7.0 7.4 7.3
8.1 7.4 7.5 6.8 6.1 7.1 7.0 6.7 6.7 6.2 6.5 5.9 5.9 5.4 5.6 4.4 4.9 6.2 5.9 3.1 3.4 4.6 5.1 5.6 6.0 5.0 6.1 6.2 3.5 2.1 2.4 4.4 4.8 5.3 5.9 6.1 7.1 7.3 8.4 7.9 7.5 7.0 6.8
7.5 7.3 7.5 7.1 7.0 6.9 5.2 5.6 5.6 5.6 5.2 4.4 3.8 3.8 4.3 4.8 4.7 6.6 6.9 4.5 4.3 5.0 5.1 5.0 4.8 6.3 6.5 7.0 7.0 4.0 3.4 5.0 6.1 6.0 5.9 6.0 6.4 6.5 6.3 6.7 7.0 7.1 7.3
7.6 7.3 7.2 6.9 7.4 7.3 6.0 5.1 4.6 4.0 4.4 3.6 3.8 3.7 3.0 4.5 5.5 6.0 6.8 6.7 5.6 4.2 5.2 5.0 5.3 7.1 7.6 7.9 6.8 6.7 7.4 6.6 3.4 4.4 5.0 6.0 5.9 6.6 7.1 6.9 7.1 7.2 7.1
7.0 6.8 6.8 7.1 7.1 6.8 5.9 4.5 3.2 3.2 2.9 4.1 4.0 3.6 3.8 4.2 4.3 6.7 6.9 6.8 6.5 5.2 4.8 5.1 6.7 7.3 7.4 6.9 7.2 8.0 7.1 5.1 4.4 3.4 5.2 5.0 5.4 6.5 7.3 7.5 7.6 7.2 6.7
6.8 6.4 6.1 6.0 5.9 5.7 4.9 4.6 3.8 2.3 3.2 5.8 6.1 6.0 5.1 5.0 4.7 4.2 4.7 5.4 6.6 5.8 5.0 5.2 4.7 5.0 4.2 4.9 5.1 6.1 5.1 4.2 4.2 5.3 3.8 4.3 4.8 5.7 6.2 7.0 6.9 6.8 6.7
6.5 6.2 5.6 4.9 4.3 3.8 4.2 3.9 4.1 4.5 5.8 6.6 5.8 6.1 6.1 5.4 5.7 5.7 4.8 5.9 6.5 5.7 4.9 4.4 4.5 4.4 5.0 5.9 5.5 5.4 5.0 4.8 4.4 3.2 3.4 4.1 5.3 6.0 6.3 6.5 6.7 7.4 7.3
5.8 4.9 3.5 2.9 2.7 3.0 3.2 4.1 4.5 4.8 4.7 6.1 6.6 6.5 5.9 5.9 6.6 7.3 7.4 7.3 7.2 7.1 5.4 2.3 2.0 1.1 2.9 5.0 5.9 5.1 4.5 4.5 4.1 3.9 2.8 3.9 4.7 4.9 5.9 6.4 7.0 7.2 6.9
4.2 3.9 3.4 3.8 4.1 4.3 3.8 4.2 4.7 4.4 5.4 6.0 6.4 6.6 6.7 7.0 6.4 7.2 7.5 7.5 7.6 7.7 6.3 4.2 2.3 2.8 4.2 5.1 6.6 5.0 4.7 4.3 4.3 3.5 3.0 2.8 3.8 5.2 4.9 5.8 7.0 7.0 6.7
4.1 3.8 3.8 3.8 4.1 4.4 4.3 4.5 4.1 4.6 4.9 4.9 4.7 6.3 6.3 6.7 6.9 6.9 7.2 7.1 6.1 6.5 6.8 6.2 4.6 4.5 4.7 5.8 6.3 5.1 4.2 3.0 2.4 2.6 1.4 0.9 0.8 3.5 3.4 5.2 6.3 6.0 6.6
5.7 6.0 5.7 5.9 5.9 5.7 5.5 4.6 4.1 4.7 4.4 5.0 5.0 4.0 4.1 6.1 6.7 6.7 6.9 6.2 5.6 5.2 5.4 5.6 5.4 5.2 5.2 5.6 5.3 4.3 2.2 0.6 -0.4 -0.9 0.2 0.9 0.8 2.9 2.7 4.1 4.6 5.5 5.5
6.7 6.3 7.0 7.3 6.9 6.2 5.2 4.8 4.6 5.1 5.9 6.1 6.1 6.4 5.7 4.9 5.7 5.1 5.7 5.5 5.5 5.3 5.2 5.0 5.0 5.2 5.4 5.9 5.5 4.2 2.7 0.9 0.4 -0.1 0.9 0.9 -0.9 0.6 1.5 2.0 2.7 4.2 6.7
6.9 7.0 7.0 7.5 7.1 7.2 6.0 4.4 5.0 5.3 4.4 4.3 4.6 3.5 4.6 6.3 6.8 6.4 5.5 4.9 5.2 5.3 5.4 5.3 5.4 5.5 5.4 5.3 5.2 4.9 4.4 3.0 2.6 1.7 1.1 0.4 -1.8 0.8 1.3 2.2 2.3 5.0 4.8
6.8 7.1 6.8 6.5 7.2 7.5 6.2 5.5 5.4 4.6 3.6 3.9 5.1 4.9 4.2 5.8 6.4 6.3 6.0 5.9 5.8 5.5 5.3 5.4 5.4 5.6 5.9 5.7 5.6 4.5 4.1 2.9 1.7 1.4 0.5 -0.3 0.2 0.6 0.4 1.1 2.3 1.2 2.1
5.0 5.7 6.3 6.4 6.2 6.9 6.7 5.4 4.9 4.2 5.5 5.7 6.0 5.7 5.7 5.8 5.9 6.1 6.6 6.4 6.1 5.9 5.6 5.4 5.7 5.6 5.4 5.6 5.7 5.6 5.1 4.2 3.9 3.0 1.5 -0.1 -0.2 0.2 -1.2 0.4 1.1 0.7 0.5
6.3 6.2 6.3 6.6 6.0 6.0 6.1 5.5 5.3 5.2 5.1 4.8 4.6 4.9 5.1 5.1 5.5 4.1 3.6 3.8 6.1 6.7 6.5 6.2 5.9 5.8 5.4 5.3 5.3 5.4 5.5 4.7 4.5 3.7 1.9 0.9 0.5 0.4 -1.1 -0.2 0.4 -0.2 -1.1
5.8 5.3 5.2 5.9 6.1 6.0 6.2 6.1 5.8 5.9 5.6 5.6 5.3 5.1 5.6 4.9 4.2 3.7 3.1 2.5 2.5 1.6 5.7 6.4 6.6 6.4 5.9 5.4 5.0 4.9 5.0 4.8 4.3 3.6 2.2 0.8 0.5 -1.1 -1.2 -0.3 -1.1 0.5 -0.7
4.9 4.1 4.3 4.7 5.2 5.9 6.0 6.0 6.3 5.7 5.6 5.4 5.0 4.9 5.2 4.6 3.9 3.3 2.4 2.1 1.5 1.7 1.4 3.7 6.1 6.7 5.8 5.7 5.1 4.6 4.6 4.5 3.4 3.5 3.1 2.7 1.7 -0.3 -0.4 0.3 -0.2 -0.1 0.9
Wind_Speed
8 6 6 4 3 2 3 3 4 4 4 3 2 2 3 3 5 4 4 4 5 4 4 3 3 2 2 3 2 3 3 3 3 3 3 5 5 7 11 14 14 16 16
7 6 4 4 3 4 1 3 4 3 3 3 1 2 4 3 2 2 1 2 2 5 6 3 2 2 3 3 3 2 2 2 1 7 4 5 5 6 6 6 13 16 16
3 5 3 1 2 5 5 4 3 2 1 0 1 4 5 3 1 2 3 4 3 4 5 3 4 3 1 0 1 2 2 3 2 3 6 4 7 5 6 6 5 9 14
5 3 3 6 5 4 4 3 3 1 2 3 5 3 4 4 4 4 4 3 4 5 5 4 5 2 3 2 1 1 2 3 2 3 7 7 5 6 5 6 7 3 5
5 6 7 6 5 4 5 4 5 5 5 6 5 3 2 1 3 2 3 1 3 3 4 4 3 4 4 5 2 2 2 2 3 5 7 7 7 7 7 6 5 5 7
7 6 6 6 5 4 3 4 5 6 5 5 3 4 2 2 6 4 1 2 4 5 5 5 2 3 3 6 7 4 2 2 4 3 6 7 9 8 4 6 5 7 9
7 7 6 5 5 4 5 5 5 5 5 6 2 2 4 3 9 7 5 3 3 5 5 2 3 3 5 4 1 3 5 10 7 6 8 8 8 7 7 9 9 7 9
7 6 4 2 3 4 5 6 4 2 3 4 5 4 1 3 9 8 7 4 5 5 1 2 3 1 3 3 1 3 4 5 5 5 4 6 7 9 8 9 10 10 9
6 5 3 2 3 5 5 6 4 2 3 3 1 2 2 2 7 9 6 3 5 4 4 4 4 4 4 2 1 3 5 5 10 13 19 19 20 22 21 7 6 7 8
3 2 3 3 6 5 5 5 4 4 5 3 3 1 2 3 8 10 7 2 3 3 4 4 2 5 3 2 1 3 4 6 6 7 7 13 16 15 16 7 5 7 7
2 4 3 4 4 2 3 3 5 6 5 2 1 4 4 6 6 12 13 4 4 3 3 2 3 6 4 6 7 4 6 5 6 5 6 5 6 5 4 9 8 6 7
2 4 5 5 4 1 2 3 4 6 3 3 5 5 4 6 8 13 16 15 10 4 5 3 4 11 9 9 7 10 13 8 2 3 4 4 4 5 6 7 12 12 13
3 5 5 5 4 4 3 1 2 4 3 5 4 4 4 4 4 10 14 16 15 6 4 7 11 11 12 8 14 14 10 3 4 1 4 3 3 5 9 6 11 13 14
5 5 5 5 5 4 2 3 3 3 3 6 4 5 4 3 3 3 4 6 13 7 6 6 4 5 7 7 7 8 4 4 4 4 2 3 2 3 4 5 6 7 7
6 5 4 3 4 4 5 5 4 5 6 6 5 6 6 5 6 7 5 4 4 6 4 2 3 3 4 5 3 4 3 3 2 2 1 2 3 2 4 5 6 7 5
5 5 5 4 4 4 5 6 11 13 12 16 18 12 7 13 12 13 12 12 13 12 4 3 3 3 4 5 5 4 2 4 2 2 1 1 2 2 4 6 6 5 5
7 6 5 6 5 6 6 7 9 7 15 16 17 17 17 17 14 15 14 14 14 13 5 4 4 5 6 5 6 4 3 3 4 2 2 2 2 3 3 4 5 5 6
7 8 5 6 7 7 8 9 7 7 8 7 8 13 14 17 18 17 16 13 7 7 7 7 7 7 7 7 6 3 2 3 3 3 2 2 2 2 2 3 4 3 5
9 8 8 9 9 11 9 9 8 6 6 8 7 6 9 16 19 18 17 8 7 7 7 8 7 7 7 7 5 4 4 3 3 3 2 2 3 1 2 3 4 5 4
9 11 12 10 10 10 9 8 4 5 7 5 4 6 5 5 6 7 7 7 7 8 7 8 7 8 8 8 7 5 4 4 3 3 3 3 3 2 2 3 3 3 3
9 10 11 11 11 11 8 4 3 5 5 4 4 4 9 6 7 7 8 8 9 9 8 8 8 8 7 7 6 6 6 5 4 4 3 3 3 1 2 2 2 3 2
11 10 10 9 10 11 7 4 6 5 5 5 6 6 10 6 7 6 7 7 7 8 8 9 8 8 8 7 7 7 7 6 5 4 4 3 3 2 2 1 2 1 1
11 12 11 9 10 15 9 5 5 3 3 4 5 6 8 5 3 4 5 5 6 7 8 8 8 7 7 9 11 8 8 7 7 5 5 4 3 2 2 1 1 1 1
13 13 11 11 6 9 9 7 6 7 6 6 5 5 7 8 6 8 8 10 7 4 5 6 7 9 8 8 12 14 14 12 14 11 10 5 4 3 2 1 0 1 1
9 11 11 11 10 9 8 8 7 6 6 6 6 6 7 7 8 8 9 9 9 10 9 5 6 8 11 13 13 15 15 17 17 18 14 6 6 5 3 2 1 0 0
9 10 9 9 9 10 9 8 8 8 8 7 7 7 8 6 7 8 9 10 10 11 13 10 7 11 12 14 17 18 18 19 18 20 15 7 5 3 3 3 3 2 1
Wind_Direction
111 114 116 122 130 147 180 139 151 127 106 96 74 14 324 12 70 55 32 26 8 357 341 355 -0 355 27 347 354 351 25 31 304 310 313 320 329 323 321 319 318 310 297
122 118 133 154 190 198 163 108 111 116 114 117 75 329 298 153 89 47 25 343 346 323 299 285 309 291 291 9 77 54 47 332 -0 316 304 317 306 305 300 304 310 304 297
130 140 148 292 133 64 71 83 96 116 143 127 308 289 284 166 143 278 287 260 241 284 298 315 287 292 3 134 37 34 352 347 320 310 310 309 308 293 308 301 290 298 307
125 114 161 91 93 80 59 22 350 315 243 262 267 274 157 180 208 242 252 271 260 247 267 274 285 141 190 227 203 303 1 342 307 291 296 300 300 301 294 299 304 302 314
125 105 92 93 75 58 35 357 323 297 261 251 264 149 157 215 251 248 256 283 311 299 305 298 147 225 226 180 121 43 25 301 295 290 291 299 302 303 299 302 301 307 302
88 84 79 75 57 28 352 320 317 305 297 274 194 172 207 263 171 163 92 20 14 300 300 309 331 14 127 99 104 106 120 285 285 262 296 296 295 296 310 309 301 307 311
87 82 65 42 19 350 314 299 295 309 348 348 260 243 258 263 171 150 137 173 253 274 287 293 347 78 121 142 85 9 339 325 301 290 294 294 300 299 297 296 295 290 289
97 90 80 51 289 302 327 298 310 348 349 326 279 282 336 304 179 171 177 206 260 280 246 349 332 158 168 137 40 332 298 288 289 287 291 302 283 288 275 282 285 282 276
84 76 48 275 320 292 283 296 286 279 303 303 101 58 48 179 197 192 197 224 252 273 281 313 310 136 160 48 34 318 302 292 309 311 313 312 312 308 305 306 292 305 315
130 152 242 330 267 289 291 296 259 242 253 217 207 204 284 218 215 222 207 206 238 253 274 285 150 161 172 328 265 248 284 288 288 304 305 307 303 298 310 309 308 310 303
274 41 293 278 282 304 40 352 328 314 295 199 244 280 268 262 232 218 221 213 224 238 239 240 196 192 216 269 276 219 238 263 277 293 295 290 308 298 292 296 293 294 299
4 266 265 277 275 186 323 326 343 343 305 254 267 274 263 259 247 224 222 222 223 211 229 227 243 215 262 291 294 271 275 272 258 279 280 297 298 312 306 294 298 296 291
283 282 286 290 280 238 218 282 333 329 309 292 275 269 265 263 255 247 227 229 227 222 217 238 255 258 275 282 277 274 272 244 250 260 272 276 262 298 308 308 310 305 302
261 273 273 282 286 269 214 222 236 238 264 282 273 277 276 274 271 265 248 230 236 220 231 248 241 240 242 252 266 267 245 233 221 239 231 255 276 306 308 315 318 316 310
251 257 263 272 273 258 246 228 228 230 236 263 248 255 258 252 240 223 203 211 225 227 212 204 228 238 259 272 247 242 246 238 223 195 240 291 294 286 315 322 318 319 320
239 248 242 242 242 241 246 267 239 237 233 246 259 255 252 244 242 227 227 230 228 223 200 199 228 229 240 262 252 248 249 240 193 202 255 253 281 292 310 324 324 329 329
246 248 246 242 242 247 244 240 267 257 241 253 257 258 259 254 245 245 242 247 239 238 226 215 217 227 245 247 252 218 234 218 182 194 178 254 277 287 311 314 323 330 331
282 259 253 249 249 249 242 243 241 248 270 272 254 253 255 254 256 247 243 251 243 239 238 237 226 230 236 243 245 221 211 176 184 190 192 245 280 246 304 313 312 310 326
306 298 283 275 269 260 253 252 239 233 248 262 272 264 252 252 255 249 241 236 229 230 230 234 231 228 234 237 226 215 191 190 189 189 215 223 255 208 290 298 300 310 315
313 309 310 306 295 282 270 264 234 235 250 255 258 272 265 248 257 245 232 226 227 230 228 229 228 226 231 233 221 203 194 189 202 201 216 204 228 173 255 289 292 297 314
319 310 311 318 312 300 264 229 263 276 257 259 265 251 248 257 270 257 236 218 227 231 229 227 229 229 226 218 210 196 195 199 203 199 179 193 167 199 264 273 273 295 306
323 313 309 304 301 296 260 246 251 244 246 253 275 268 260 263 263 263 248 242 227 223 223 223 226 226 224 214 205 199 198 199 197 186 183 181 175 201 261 247 325 322 333
312 305 300 297 299 290 256 239 239 254 316 342 348 350 340 285 253 267 288 283 262 246 232 224 228 224 218 214 204 200 199 202 201 181 177 172 167 178 181 220 287 264 16
344 337 322 314 328 22 23 38 36 23 18 17 1 0 4 352 1 2 3 352 308 270 274 251 237 233 218 207 199 200 200 193 185 185 169 161 165 160 174 167 117 114 178
358 359 357 356 6 9 3 18 18 26 18 12 14 6 359 10 6 357 357 349 341 341 303 251 267 247 228 207 192 188 189 179 176 171 162 147 159 152 161 164 161 272 94
5 7 3 4 4 5 13 9 14 19 15 14 9 6 359 8 2 358 355 347 342 334 334 323 282 275 233 212 188 183 181 173 169 173 162 155 159 167 171 197 203 195 144